This demonstration page uses our WeatherBlox Daily Observations layout. Learn more.

Left ArrowRight Arrow

38.80484, -77.04692

Hourly Observations for December 21, 2020

Temp ( °F °C ) Dew Point ( °F °C ) Humidity (%) Winds ( mph kmh ) Pressure ( in mb ) Visibility ( mi km ) Precip ( " mm )
12:52 am 00:52 Cloudy 40 4.4 37 2.8 89 89 S 6 9 29.95 1014 9 14 N/A
1:00 am 01:00 Cloudy 40 4.4 37 2.8 89 89 S 5 7 29.95 1014 9 14 N/A
1:52 am 01:52 Cloudy 40 4.4 37 2.8 89 89 S 5 7 29.94 1014 9 14 N/A
2:52 am 02:52 Cloudy 40 4.4 37 2.8 89 89 S 3 6 29.93 1014 8 13 N/A
3:52 am 03:52 Cloudy 40 4.4 37 2.8 89 89 WSW 5 7 29.93 1014 8 13 N/A
4:52 am 04:52 Cloudy 40 4.4 38 3.3 93 93 SSW 5 7 29.91 1013 7 11 N/A
5:52 am 05:52 Cloudy 40 4.4 37 2.8 89 89 W 3 6 29.91 1013 7 11 N/A
6:52 am 06:52 Cloudy 40 4.4 38 3.3 93 93 S 3 6 29.92 1013 7 11 N/A
7:52 am 07:52 Cloudy with Mist and Fog 40 4.4 37 2.8 89 89 WSW 3 6 29.91 1013 4 6 N/A
8:52 am 08:52 Cloudy with Mist and Fog 41 5 38 3.3 89 89 SSE 5 7 29.92 1013 4 6 N/A
9:34 am 09:34 Cloudy with Mist and Fog 41 5 38 3.3 89 89 S 3 6 29.94 1014 5 8 N/A
9:52 am 09:52 Cloudy with Mist and Fog 42 5.6 38 3.3 85 85 SSE 5 7 29.93 1014 5 8 N/A
10:36 am 10:36 Mostly Cloudy with Mist and Fog 42 5.6 38 3.3 85 85 N N/A 29.93 1014 6 10 N/A
10:52 am 10:52 Mostly Cloudy 43 6.1 38 3.3 82 82 SW 7 11 29.92 1013 7 11 N/A
11:20 am 11:20 Mostly Cloudy 44 6.7 38 3.3 79 79 SSW 5 7 29.91 1013 8 13 N/A
11:52 am 11:52 Mostly Cloudy 43 6.1 38 3.3 82 82 SSE 7 11 29.88 1012 7 11 N/A
12:52 pm 12:52 Mostly Cloudy 45 7.2 39 3.9 80 80 S 8 13 29.85 1011 9 14 N/A
1:52 pm 13:52 Mostly Cloudy 46 7.8 39 3.9 77 77 S 9 15 29.83 1010 9 14 N/A
2:52 pm 14:52 Mostly Cloudy 46 7.8 37 2.8 71 71 S 9 15 29.81 1009 10 16 N/A
3:52 pm 15:52 Mostly Cloudy 45 7.2 37 2.8 74 74 S 6 9 29.80 1009 10 16 N/A
4:52 pm 16:52 Mostly Cloudy 43 6.1 36 2.2 76 76 S 7 11 29.80 1009 10 16 N/A
5:52 pm 17:52 Mostly Cloudy 42 5.6 37 2.8 82 82 S 5 7 29.78 1009 10 16 N/A
6:52 pm 18:52 Mostly Cloudy 42 5.6 37 2.8 82 82 S 8 13 29.78 1008 10 16 N/A
7:52 pm 19:52 Partly Cloudy 42 5.6 38 3.3 85 85 S 10 17 29.78 1008 10 16 N/A
8:52 pm 20:52 Cloudy with Light Rain 43 6.1 39 3.9 86 86 S 9 15 29.77 1008 10 16 0.00 0.00
9:52 pm 21:52 Cloudy with Light Rain 44 6.7 41 5 89 89 SSW 6 9 29.75 1008 7 11 0.03 0.76
10:52 pm 22:52 Cloudy 42 5.6 40 4.4 92 92 S 6 9 29.74 1007 8 13 0.00 0.00
11:52 pm 23:52 Cloudy 43 6.1 40 4.4 89 89 N N/A 29.73 1007 10 16 N/A

Powered by AerisWeather